Weather History for KDAN - November, 2013

Change the Weather History Date:

Monday, November 18, 2013

  Actual Average Record
Temperature  
Mean Temperature 61 °F 48 °F  
Max Temperature 72 °F 59 °F 80 °F (1953)
Min Temperature 50 °F 37 °F 19 °F (2014)
Degree Days  
Heating Degree Days 4 17  
Month to date heating degree days 263 247  
Since 1 July heating degree days 453 480  
Cooling Degree Days 0 0  
Month to date cooling degree days 0 0  
Year to date cooling degree days 1413 1436  
Growing Degree Days 12 (Base 50)    
Moisture  
Dew Point 47 °F    
Average Humidity 58    
Maximum Humidity 93    
Minimum Humidity 23    
Precipitation  
Precipitation 0.01 in 0.11 in 0.92 in (1968)
Month to date precipitation 0.22 2.06  
Year to date precipitation 43.88 39.84  
Snow  
Snow 0.00 in - - ()
Month to date snowfall 0.0  
Since 1 July snowfall 0.0  
Since 1 September snowfall 0.0  
Snow Depth 0.00 in    
Sea Level Pressure  
Sea Level Pressure 29.86 in    
Wind  
Wind Speed 8 mph (West)    
Max Wind Speed 22 mph    
Max Gust Speed 30 mph    
Visibility 9 miles    
Events Rain    
T = Trace of Precipitation, MM = Missing Value Source: NWS Daily Summary

Daily Weather History Graph

Daily Weather History Graph

Search for Another Location

Airport or City:

Trip Planner

Search our weather history database for the weather conditions in past years. The results will help you decide how hot, cold, wet, or windy it might be!

Date:

Astronomy

Nov. 18, 2013 Rise Set
Actual Time 6:58 AM EST 5:06 PM EST
Civil Twilight 6:30 AM EST 5:34 PM EST
Nautical Twilight 5:59 AM EST 6:05 PM EST
Astronomical Twilight 5:28 AM EST 6:36 PM EST
Moon 6:07 PM EST (11/18) 7:45 AM EST (11/18)
Length of Visible Light 11h 03m
Length of Day
10h 08m
Full, 99% of the Moon is Illuminated
Nov 18
Full
Nov 25
Last Quarter
Dec 2
New
Dec 9
First Quarter
Dec 17
Full

Hourly Weather History & Observations

Time (EST) Temp. Dew Point Humidity Pressure Visibility Wind Dir Wind Speed Gust Speed Precip Events Conditions
12:53 AM 66.0 °F 63.0 °F 90% 29.80 in 10.0 mi SSW 10.4 mph 20.7 mph N/A   Overcast
1:53 AM 66.9 °F 64.0 °F 90% 29.79 in 10.0 mi SW 12.7 mph 21.9 mph N/A   Overcast
2:16 AM 68.0 °F 64.4 °F 88% 29.80 in 10.0 mi SW 15.0 mph 23.0 mph N/A   Overcast
2:53 AM 66.9 °F 64.0 °F 90% 29.78 in 10.0 mi SW 12.7 mph 21.9 mph N/A   Overcast
3:11 AM 66.2 °F 64.4 °F 94% 29.81 in 9.0 mi WSW 9.2 mph - N/A   Overcast
3:34 AM 64.4 °F 60.8 °F 88% 29.84 in 2.5 mi WNW 13.8 mph - 0.00 in Rain Light Rain
3:42 AM 62.6 °F 60.8 °F 94% 29.84 in 3.0 mi WNW 11.5 mph 20.7 mph 0.00 in Rain Light Rain
3:53 AM 63.0 °F 60.1 °F 90% 29.82 in 5.0 mi WNW 6.9 mph - 0.00 in Rain Light Rain
4:10 AM 62.6 °F 60.8 °F 94% 29.85 in 6.0 mi West 6.9 mph - 0.00 in Rain Light Rain
4:53 AM 62.1 °F 59.0 °F 90% 29.83 in 10.0 mi Calm Calm - 0.00 in Rain Light Rain
5:53 AM 61.0 °F 57.9 °F 90% 29.83 in 10.0 mi West 3.5 mph - 0.00 in   Overcast
6:53 AM 57.9 °F 55.0 °F 90% 29.84 in 10.0 mi SSW 4.6 mph - N/A   Mostly Cloudy
7:53 AM 59.0 °F 54.0 °F 83% 29.86 in 10.0 mi WSW 3.5 mph - N/A   Overcast
8:53 AM 63.0 °F 51.1 °F 65% 29.87 in 10.0 mi West 4.6 mph - N/A   Mostly Cloudy
9:53 AM 64.9 °F 48.9 °F 56% 29.88 in 10.0 mi NW 6.9 mph - N/A   Scattered Clouds
10:53 AM 68.0 °F 46.0 °F 45% 29.88 in 10.0 mi NW 8.1 mph - N/A   Clear
11:53 AM 69.1 °F 46.0 °F 44% 29.85 in 10.0 mi NW 12.7 mph - N/A   Clear
12:53 PM 70.0 °F 45.0 °F 41% 29.84 in 10.0 mi WNW 9.2 mph 19.6 mph 0.01 in   Clear
1:53 PM 71.1 °F 36.0 °F 28% 29.82 in 10.0 mi West 9.2 mph 18.4 mph N/A   Clear
2:53 PM 70.0 °F 32.0 °F 25% 29.83 in 10.0 mi West 15.0 mph 25.3 mph N/A   Clear
3:53 PM 69.1 °F 30.0 °F 23% 29.83 in 10.0 mi West 15.0 mph 24.2 mph N/A   Clear
4:53 PM 66.0 °F 30.9 °F 27% 29.83 in 10.0 mi WNW 8.1 mph - N/A   Clear
5:53 PM 61.0 °F 34.0 °F 36% 29.86 in 10.0 mi NNW 4.6 mph - N/A   Clear
6:53 PM 59.0 °F 30.0 °F 33% 29.90 in 10.0 mi NW 8.1 mph - N/A   Clear
7:53 PM 57.9 °F 28.9 °F 33% 29.93 in 10.0 mi NW 4.6 mph - N/A   Clear
8:53 PM 57.0 °F 28.0 °F 33% 29.95 in 10.0 mi WNW 10.4 mph 24.2 mph N/A   Clear
9:53 PM 55.9 °F 28.0 °F 34% 29.96 in 10.0 mi NW 9.2 mph 18.4 mph N/A   Clear
10:53 PM 54.0 °F 26.1 °F 34% 29.98 in 10.0 mi WNW 4.6 mph 16.1 mph N/A   Clear
11:53 PM 51.1 °F 27.0 °F 39% 29.99 in 10.0 mi NW 5.8 mph - N/A   Clear